Location: Beverley
(50.2667°N, 107.9667°W)
Time: 23:08:02
(UTC+00:00)

Envisat - Pass Details

Date: 26 January 2022
Orbit: 764 x 765 km, 98.2° (Epoch: 22 May)

Event Time Altitude Azimuth Distance (km) Brightness Sun altitude
Rises 00:34:03 0° 213° (SSW) 3,220 7.2 -6.6°
Reaches altitude 10° 00:37:15 10° 235° (SW) 2,299 7.0 -7.1°
Maximum altitude 00:40:19 16° 273° (W) 1,916 6.2 -7.6°
Drops below altitude 10° 00:43:25 10° 311° (NW) 2,310 5.9 -8.0°
Sets 00:46:40 0° 332° (NNW) 3,242 6.4 -8.5°
